• In Uzbekistan
  • List of Countries
  • For 7 days
  • Water Temperature
  • Satellite Maps
  • Weather Map
  • Weather Widgets
  • user-avatar
    Login

    Hourly Weather Stepanakert

    Today, 9 December, Friday

    Time Temperature Precipitation Wind Pressure Humidity
    00:00 -7°C° 0 mm 1 mps 699 mmHg 86%
    01:00 -7°C° 0 mm 1 mps 699 mmHg 85%
    02:00 -7°C° 0 mm 1 mps 698 mmHg 84%
    03:00 -7°C° 0 mm 1 mps 698 mmHg 81%
    04:00 -7°C° 0 mm 1 mps 697 mmHg 80%
    05:00 -7°C° 0 mm 1 mps 697 mmHg 79%
    06:00 -7°C° 0 mm 1 mps 696 mmHg 78%
    07:00 -4°C° 0 mm 1 mps 696 mmHg 72%
    08:00 -3°C° 0 mm 1 mps 696 mmHg 67%
    09:00 0°C° 0 mm 1 mps 695 mmHg 59%
    10:00 -1°C° 0 mm 2 mps 695 mmHg 56%
    11:00 +1°C° 0 mm 2 mps 694 mmHg 53%
    12:00 +2°C° 0 mm 2 mps 694 mmHg 50%
    13:00 +2°C° 0 mm 2 mps 693 mmHg 53%
    14:00 +2°C° 0 mm 2 mps 693 mmHg 56%
    15:00 +2°C° 0 mm 2 mps 692 mmHg 60%
    16:00 -1°C° 0 mm 2 mps 692 mmHg 62%
    17:00 0°C° 0 mm 1 mps 692 mmHg 65%
    18:00 -1°C° 0 mm 1 mps 692 mmHg 68%
    19:00 -1°C° 0 mm 1 mps 692 mmHg 69%
    20:00 -3°C° 0 mm 2 mps 692 mmHg 69%
    21:00 -4°C° 0 mm 2 mps 692 mmHg 70%
    22:00 -4°C° 0 mm 2 mps 692 mmHg 69%
    23:00 -3°C° 0 mm 2 mps 692 mmHg 68%

    Tomorrow, 10 December, Saturday

    Time Temperature Precipitation Wind Pressure Humidity
    00:00 -3°C° 0 mm 2 mps 692 mmHg 67%
    01:00 -3°C° 0 mm 2 mps 692 mmHg 67%
    02:00 -3°C° 0 mm 2 mps 692 mmHg 67%
    03:00 -3°C° 0 mm 2 mps 691 mmHg 67%
    04:00 -3°C° 0 mm 2 mps 691 mmHg 66%
    05:00 -3°C° 0 mm 2 mps 691 mmHg 65%
    06:00 -3°C° 0 mm 2 mps 691 mmHg 64%
    07:00 -1°C° 0 mm 2 mps 691 mmHg 61%
    08:00 +1°C° 0 mm 2 mps 691 mmHg 58%
    09:00 +2°C° 0 mm 2 mps 691 mmHg 55%
    10:00 +4°C° 0 mm 2 mps 691 mmHg 53%
    11:00 +6°C° 0 mm 1 mps 691 mmHg 50%
    12:00 +7°C° 0 mm 1 mps 690 mmHg 47%
    13:00 +7°C° 0 mm 1 mps 690 mmHg 51%
    14:00 +7°C° 0 mm 1 mps 689 mmHg 55%
    15:00 +6°C° 0 mm 1 mps 688 mmHg 60%
    16:00 +4°C° 0 mm 1 mps 688 mmHg 64%
    17:00 +3°C° 0 mm 1 mps 688 mmHg 68%
    18:00 +1°C° 0 mm 1 mps 688 mmHg 73%
    19:00 +2°C° 0 mm 1 mps 688 mmHg 73%
    20:00 +2°C° 0 mm 1 mps 688 mmHg 72%
    21:00 +2°C° 0 mm 1 mps 688 mmHg 72%
    22:00 +2°C° 0 mm 1 mps 688 mmHg 71%
    23:00 +1°C° 0 mm 2 mps 689 mmHg 71%

    Day after tomorrow, 11 December, Sunday

    Time Temperature Precipitation Wind Pressure Humidity
    00:00 +1°C° 0 mm 2 mps 689 mmHg 70%
    01:00 +1°C° 0 mm 2 mps 689 mmHg 71%
    02:00 -1°C° 0 mm 2 mps 689 mmHg 73%
    03:00 -1°C° 0 mm 2 mps 689 mmHg 74%
    04:00 -1°C° 0 mm 2 mps 689 mmHg 74%
    05:00 -1°C° 0 mm 2 mps 690 mmHg 74%
    06:00 -2°C° 0 mm 2 mps 690 mmHg 75%
    07:00 +1°C° 0 mm 2 mps 690 mmHg 70%
    08:00 +3°C° 0 mm 1 mps 691 mmHg 65%
    09:00 +5°C° 0 mm 1 mps 692 mmHg 60%
    10:00 +6°C° 0 mm 1 mps 691 mmHg 57%
    11:00 +6°C° 0 mm 1 mps 691 mmHg 54%
    12:00 +7°C° 0 mm 1 mps 691 mmHg 51%
    13:00 +7°C° 0 mm 1 mps 691 mmHg 54%
    14:00 +7°C° 0 mm 1 mps 691 mmHg 57%
    15:00 +6°C° 0 mm 2 mps 690 mmHg 59%
    16:00 +5°C° 0 mm 1 mps 690 mmHg 65%
    17:00 +3°C° 0 mm 1 mps 690 mmHg 71%
    18:00 +2°C° 0 mm 1 mps 690 mmHg 77%
    19:00 +1°C° 0 mm 2 mps 691 mmHg 75%
    20:00 +1°C° 0 mm 2 mps 691 mmHg 74%
    21:00 +1°C° 0 mm 2 mps 691 mmHg 72%
    22:00 +1°C° 0 mm 2 mps 691 mmHg 71%
    23:00 +1°C° 0 mm 2 mps 691 mmHg 71%

    12 December, Monday

    Time Temperature Precipitation Wind Pressure Humidity
    00:00 +1°C° 0 mm 2 mps 691 mmHg 70%
    01:00 +1°C° 0 mm 2 mps 691 mmHg 70%
    02:00 +1°C° 0 mm 2 mps 691 mmHg 70%
    03:00 +1°C° 0 mm 2 mps 691 mmHg 70%
    04:00 +1°C° 0 mm 2 mps 691 mmHg 69%
    05:00 +1°C° 0 mm 2 mps 691 mmHg 68%
    06:00 +1°C° 0 mm 2 mps 691 mmHg 67%
    07:00 +2°C° 0 mm 2 mps 692 mmHg 64%
    08:00 +4°C° 0 mm 2 mps 692 mmHg 60%
    09:00 +5°C° 0 mm 2 mps 693 mmHg 57%
    10:00 +7°C° 0 mm 2 mps 692 mmHg 53%
    11:00 +9°C° 0 mm 1 mps 692 mmHg 50%
    12:00 +11°C° 0 mm 1 mps 691 mmHg 47%
    13:00 +10°C° 0 mm 1 mps 691 mmHg 50%
    14:00 +10°C° 0 mm 1 mps 690 mmHg 53%
    15:00 +10°C° 0 mm 1 mps 690 mmHg 57%
    16:00 +8°C° 0 mm 1 mps 689 mmHg 61%
    17:00 +6°C° 0 mm 1 mps 689 mmHg 65%
    18:00 +4°C° 0 mm 2 mps 689 mmHg 69%
    19:00 +4°C° 0 mm 2 mps 689 mmHg 69%
    20:00 +3°C° 0 mm 2 mps 689 mmHg 69%
    21:00 +3°C° 0 mm 2 mps 688 mmHg 69%
    22:00 +3°C° 0 mm 2 mps 688 mmHg 69%
    23:00 +4°C° 0 mm 2 mps 688 mmHg 69%

    13 December, Tuesday

    Time Temperature Precipitation Wind Pressure Humidity
    00:00 +4°C° 0 mm 2 mps 688 mmHg 69%
    01:00 +4°C° 0 mm 2 mps 688 mmHg 68%
    02:00 +4°C° 0 mm 2 mps 687 mmHg 67%
    03:00 +4°C° 0 mm 2 mps 687 mmHg 66%
    04:00 +4°C° 0 mm 2 mps 687 mmHg 67%
    05:00 +4°C° 0 mm 2 mps 687 mmHg 68%
    06:00 +3°C° 0 mm 2 mps 687 mmHg 69%
    07:00 +4°C° 0 mm 2 mps 687 mmHg 66%
    08:00 +6°C° 0 mm 2 mps 688 mmHg 63%
    09:00 +8°C° 0 mm 1 mps 688 mmHg 60%
    10:00 +8°C° 0 mm 2 mps 688 mmHg 55%
    11:00 +9°C° 0 mm 2 mps 688 mmHg 50%
    12:00 +12°C° 0 mm 2 mps 687 mmHg 45%
    13:00 +10°C° 0 mm 2 mps 687 mmHg 48%
    14:00 +10°C° 0 mm 2 mps 687 mmHg 50%
    15:00 +11°C° 0 mm 1 mps 686 mmHg 53%
    16:00 +9°C° 0 mm 1 mps 686 mmHg 58%
    17:00 +7°C° 0 mm 1 mps 686 mmHg 64%
    18:00 +5°C° 0 mm 1 mps 686 mmHg 69%
    19:00 +5°C° 0 mm 1 mps 686 mmHg 69%
    20:00 +5°C° 0 mm 1 mps 686 mmHg 70%
    21:00 +5°C° 0 mm 1 mps 686 mmHg 70%
    22:00 +4°C° 0 mm 1 mps 686 mmHg 70%
    23:00 +4°C° 0 mm 1 mps 686 mmHg 71%

    14 December, Wednesday

    Time Temperature Precipitation Wind Pressure Humidity
    00:00 +4°C° 0 mm 1 mps 686 mmHg 71%
    01:00 +4°C° 0 mm 1 mps 686 mmHg 71%
    02:00 +4°C° 0 mm 1 mps 686 mmHg 71%
    03:00 +4°C° 0 mm 1 mps 686 mmHg 71%
    04:00 +4°C° 0 mm 1 mps 686 mmHg 72%
    05:00 +3°C° 0 mm 1 mps 686 mmHg 73%
    06:00 +3°C° 0 mm 1 mps 686 mmHg 74%
    07:00 +4°C° 0 mm 1 mps 687 mmHg 72%
    08:00 +5°C° 0 mm 1 mps 687 mmHg 71%
    09:00 +5°C° 0 mm 1 mps 688 mmHg 70%
    10:00 +5°C° 0.1 mm 2 mps 688 mmHg 71%
    11:00 +5°C° 0.1 mm 2 mps 688 mmHg 71%
    12:00 +4°C° 0.1 mm 3 mps 687 mmHg 72%
    13:00 +4°C° 0.3 mm 3 mps 687 mmHg 76%
    14:00 +4°C° 0.3 mm 3 mps 687 mmHg 81%
    15:00 +3°C° 0.3 mm 3 mps 687 mmHg 85%
    16:00 +3°C° 0.6 mm 3 mps 687 mmHg 87%
    17:00 +2°C° 0.6 mm 3 mps 687 mmHg 90%
    18:00 +2°C° 0.6 mm 3 mps 688 mmHg 92%
    19:00 +2°C° 0.6 mm 3 mps 688 mmHg 92%
    20:00 +1°C° 0.6 mm 3 mps 688 mmHg 92%
    21:00 +1°C° 0.6 mm 3 mps 688 mmHg 92%
    22:00 +1°C° 0.3 mm 3 mps 688 mmHg 92%
    23:00 +1°C° 0.3 mm 3 mps 688 mmHg 92%
    Show more